2022-098B (53445 NORAD) Tracking and Keplerian Element Data

This shows tracking and keplerian element data for the satellite.

Feedback or suggestion? Click here.




ElementValue
Catalog53445
Name2022-098B
Epoch Orbit1550
Epoch Day325.07686664
Epoch Year2022
RAAN59.6364
Inclination97.5337
Eccentricity0.0006968
Argument of Perigee289.7215
Mean Anonmoly193.1183
Mean Motion15.09687236
Decay Rate4.617E-05
L11 53445U 22098B 22325.07686664 .00004617 00000+0 29037-3 0 9990
L22 53445 97.5337 59.6364 0006968 289.7215 193.1183 15.09687236 15507



Live tracking and technical data element details for 2022-098B (NORAD 53445). 2022-098B can be tracked NOW for your location showing map with azimuth and elevation plus other details from your city location.







IsCatalogInMostPopularTable: catalog: 53445, numindb: 5
Update: records affected: 1



GetName: 53445 2022-098B

Hit Count: updated at: Thu, 08 Dec 2022 19:14:20 GMT